User: anonymous   Login
Location: Zapote
(9.9191°N, 84.0597°W)
Time: 11:07:50
(UTC-06:00)
Language:

ZACube-1 - Orbit

View from above orbital plane
View from above orbital plane
View from above satellite
View from above satellite

Ground track
Ground track

The orbit data is extracted from the following two-line orbital elements,

1 39417U 13066B   21101.92253033  .00000308  00000-0  44648-4 0  9993
2 39417  97.5895  89.7115 0059252  20.7564 339.6036 14.81471464399222
Epoch (UTC): 11 April 2021 22:08:26
Eccentricity: 0.0059252
inclination: 97.5895°
perigee height: 583 km
apogee height: 666 km
right ascension of ascending node: 89.7115°
argument of perigee: 20.7564°
revolutions per day: 14.81471464
mean anomaly at epoch: 339.6036°
orbit number at epoch: 39922

The dashed part of the orbit path shows where the satellite is in the earth's shadow,  

DLR